Location: Aniagua
(10.1035°N, 66.9692°W)
Time: 17:30:22
(UTC+00:00)

Daily predictions for brighter satellites

Satellite Brightness Start Highest point End
(mag) Time Altitude Azimuth Time Altitude Azimuth Time Altitude Azimuth
BREEZE-M DEB (TANK) 4.4 23:08:35 10° NW 23:12:43 74° SW 23:24:37 10° SE
USA 267 3.8 23:06:53 10° ENE 23:12:44 35° SE 23:18:35 10° S
Cosmos 2278 Rocket 2.9 23:08:05 10° N 23:13:13 36° ENE 23:18:21 10° SE
GPS 2-14 Rocket1 3.6 23:09:56 10° W 23:13:53 50° NNW 23:17:50 10° ENE
Meteor 2-10 4.2 23:12:43 10° N 23:17:49 58° E 23:23:05 10° SSE
Cosmos 1707 3.2 23:15:52 10° SSE 23:19:24 36° E 23:22:55 10° NNE
Cosmos 1842 3.6 23:19:30 10° S 23:23:17 67° W 23:27:05 10° N
SL-16 R/B 3.7 23:19:49 10° SW 23:25:07 42° WNW 23:30:27 10° N
Cosmos 1766 3.6 23:22:33 10° NNE 23:26:17 45° E 23:30:00 10° SSE
USA 229 DEB 4.3 23:20:54 10° NNW 23:28:45 76° WSW 23:36:43 10° SSE
USA 229 4.3 23:20:59 10° NNW 23:28:50 77° WSW 23:36:47 10° SSE
GPS 2-17 Rocket1 2.9 23:28:01 10° WSW 23:32:27 82° SSE 23:37:00 10° ENE
Ariane H10 3.9 23:31:30 10° WSW 23:34:41 24° SSW 23:36:19 14° SE
Cosmos 405 Rocket 3.3 23:32:00 10° SSE 23:35:36 36° E 23:39:15 10° NNE
Centaur D-1A AC-35 4.1 23:33:56 10° W 23:38:56 24° SW 23:41:55 10° SSE
YAOGAN 1 2.5 23:39:11 10° SSE 23:43:30 85° ENE 23:47:48 10° N
CZ-4C R/B 3.2 23:40:15 10° N 23:43:34 68° W 23:46:58 10° SSW
X-37B 1.9 23:41:23 10° WSW 23:43:59 37° NW 23:46:34 10° NNE
Cosmos 1943 3.2 23:43:13 10° S 23:48:47 58° ESE 23:54:19 10° NNE
Feng Yun 1-1 Rocket 4.1 23:45:14 10° SSE 23:50:34 67° ENE 23:55:55 10° N
Cosmos 2266 Rocket 4.0 23:45:05 10° N 23:51:00 58° E 23:57:00 10° SSE
Cosmos 1603 3.8 23:47:27 10° S 23:52:55 54° ESE 23:58:24 10° NNE
